| time (UTC) | temp F | wind direction | speed knots | gust knots | rain 1hr in | rain 24hr in | rain mn in | humidity % | barometer mb |
| 20260509200632 | 50 | 238 | 1.7 | 1.7 | 0.00 | 0.00 | 0.00 | 92 | 1026.4 |
| 20260509195131 | 51 | 209 | 0.9 | 0.9 | 0.00 | 0.00 | 0.00 | 91 | 1026.4 |
| 20260509193629 | 50 | 222 | 0.0 | 0.0 | 0.00 | 0.00 | 0.00 | 92 | 1025.9 |
| 20260509192129 | 50 | 270 | 0.0 | 0.0 | 0.00 | 0.00 | 0.00 | 91 | 1025.8 |
| 20260509190628 | 51 | 239 | 0.9 | 0.9 | 0.00 | 0.00 | 0.00 | 91 | 1025.7 |
| 20260509185125 | 50 | 206 | 1.7 | 1.7 | 0.00 | 0.00 | 0.00 | 91 | 1025.5 |
| 20260509183622 | 51 | 212 | 0.9 | 1.7 | 0.00 | 0.00 | 0.00 | 91 | 1025.1 |
| 20260509182116 | 51 | 278 | 0.0 | 0.0 | 0.00 | 0.00 | 0.00 | 92 | 1025.1 |
| 20260509180614 | 49 | 197 | 1.7 | 1.7 | 0.00 | 0.00 | 0.00 | 93 | 1024.9 |
| 20260509175108 | 50 | 191 | 2.6 | 2.6 | 0.00 | 0.00 | 0.00 | 92 | 1024.8 |
| 20260509173607 | 50 | 230 | 0.9 | 0.9 | 0.00 | 0.00 | 0.00 | 93 | 1024.6 |
| 20260509172102 | 50 | 207 | 1.7 | 1.7 | 0.00 | 0.00 | 0.00 | 92 | 1024.9 |
| 20260509170556 | 51 | 219 | 1.7 | 1.7 | 0.00 | 0.00 | 0.00 | 90 | 1025.0 |
| 20260509165052 | 51 | 220 | 0.9 | 1.7 | 0.00 | 0.00 | 0.00 | 90 | 1024.7 |
| 20260509163548 | 52 | 247 | 1.7 | 1.7 | 0.00 | 0.00 | 0.00 | 90 | 1024.9 |
| 20260509162047 | 51 | 248 | 0.0 | 0.0 | 0.00 | 0.00 | 0.00 | 90 | 1024.9 |
| 20260509160546 | 51 | 256 | 0.0 | 0.0 | 0.00 | 0.00 | 0.00 | 91 | 1024.9 |
| 20260509155046 | 51 | 232 | 0.0 | 0.0 | 0.00 | 0.00 | 0.00 | 91 | 1025.0 |
| 20260509153543 | 51 | 277 | 0.9 | 1.7 | 0.00 | 0.00 | 0.00 | 91 | 1025.0 |
| 20260509152039 | 51 | 228 | 0.0 | 0.9 | 0.00 | 0.00 | 0.00 | 90 | 1025.0 |
| 20260509150536 | 51 | 267 | 0.0 | 0.0 | 0.00 | 0.00 | 0.00 | 90 | 1024.9 |
| 20260509145036 | 51 | 270 | 0.0 | 0.0 | 0.00 | 0.00 | 0.00 | 90 | 1025.3 |
| 20260509143534 | 52 | 288 | 0.0 | 0.0 | 0.00 | 0.00 | 0.00 | 90 | 1025.2 |
| 20260509142035 | 52 | 274 | 0.0 | 0.9 | 0.00 | 0.00 | 0.00 | 89 | 1025.3 |
| 20260509140530 | 52 | 220 | 0.9 | 0.9 | 0.00 | 0.00 | 0.00 | 89 | 1025.3 |
| 20260509135029 | 52 | 257 | 0.9 | 0.9 | 0.00 | 0.00 | 0.00 | 88 | 1025.0 |
| 20260509133525 | 53 | 244 | 0.0 | 0.0 | 0.00 | 0.00 | 0.00 | 88 | 1025.1 |
| 20260509132026 | 53 | 273 | 0.0 | 0.0 | 0.00 | 0.00 | 0.00 | 88 | 1025.2 |
| 20260509130525 | 53 | 281 | 0.9 | 0.9 | 0.00 | 0.00 | 0.00 | 88 | 1025.3 |
| 20260509125021 | 53 | 241 | 0.0 | 0.0 | 0.00 | 0.00 | 0.00 | 88 | 1025.1 |
| 20260509123519 | 53 | 274 | 0.9 | 0.9 | 0.00 | 0.00 | 0.00 | 88 | 1025.3 |
| 20260509122015 | 53 | 266 | 0.9 | 1.7 | 0.00 | 0.00 | 0.00 | 87 | 1025.2 |
| 20260509120513 | 53 | 228 | 0.9 | 1.7 | 0.00 | 0.00 | 0.00 | 87 | 1025.4 |
| 20260509115011 | 53 | 238 | 0.0 | 0.0 | 0.00 | 0.00 | 0.00 | 87 | 1025.5 |
| 20260509113511 | 53 | 293 | 0.0 | 0.0 | 0.00 | 0.00 | 0.00 | 87 | 1025.3 |
| 20260509112008 | 53 | 240 | 0.0 | 0.0 | 0.00 | 0.00 | 0.00 | 88 | 1025.5 |
| 20260509110504 | 53 | 272 | 0.0 | 0.0 | 0.00 | 0.00 | 0.00 | 88 | 1025.3 |
| 20260509105003 | 53 | 266 | 0.0 | 0.0 | 0.00 | 0.00 | 0.00 | 88 | 1025.3 |
| 20260509103500 | 53 | 243 | 0.0 | 0.0 | 0.00 | 0.00 | 0.00 | 89 | 1025.1 |
| 20260509101957 | 53 | 236 | 0.0 | 0.0 | 0.00 | 0.00 | 0.00 | 89 | 1024.9 |
| 20260509100454 | 53 | 286 | 0.0 | 0.0 | 0.00 | 0.00 | 0.00 | 90 | 1025.0 |
| 20260509094950 | 53 | 272 | 0.9 | 0.9 | 0.00 | 0.00 | 0.00 | 89 | 1024.9 |
| 20260509093448 | 54 | 278 | 0.0 | 0.0 | 0.00 | 0.00 | 0.00 | 89 | 1024.6 |
| 20260509091947 | 54 | 238 | 1.7 | 1.7 | 0.00 | 0.00 | 0.00 | 89 | 1024.5 |
| 20260509090444 | 55 | 217 | 1.7 | 1.7 | 0.00 | 0.00 | 0.00 | 88 | 1024.5 |
| 20260509084940 | 55 | 273 | 0.0 | 0.0 | 0.00 | 0.00 | 0.00 | 87 | 1024.4 |
| 20260509083438 | 55 | 296 | 0.0 | 0.0 | 0.00 | 0.00 | 0.00 | 86 | 1024.4 |
| 20260509081934 | 56 | 288 | 0.0 | 0.0 | 0.00 | 0.00 | 0.00 | 85 | 1023.9 |
| 20260509080433 | 57 | 285 | 0.0 | 0.0 | 0.00 | 0.00 | 0.00 | 84 | 1023.9 |
| 20260509074931 | 57 | 286 | 0.0 | 0.0 | 0.00 | 0.00 | 0.00 | 81 | 1023.6 |
| 20260509073427 | 58 | 279 | 0.0 | 0.0 | 0.00 | 0.00 | 0.00 | 79 | 1023.3 |
| 20260509071922 | 59 | 283 | 0.0 | 0.0 | 0.00 | 0.00 | 0.00 | 77 | 1023.0 |
| 20260509070419 | 61 | 291 | 0.0 | 0.0 | 0.00 | 0.00 | 0.00 | 75 | 1023.0 |
| 20260509064919 | 63 | 287 | 0.0 | 0.9 | 0.00 | 0.00 | 0.00 | 71 | 1022.7 |
| 20260509063415 | 65 | 208 | 0.9 | 1.7 | 0.00 | 0.00 | 0.00 | 67 | 1022.8 |
| 20260509061913 | 66 | 306 | 0.0 | 0.0 | 0.00 | 0.00 | 0.00 | 64 | 1022.6 |
| 20260509060410 | 67 | 7 | 1.7 | 1.7 | 0.00 | 0.00 | 0.00 | 65 | 1022.6 |
| 20260509054910 | 69 | 292 | 0.0 | 0.0 | 0.00 | 0.00 | 0.00 | 61 | 1022.6 |
| 20260509053408 | 68 | 309 | 0.0 | 0.9 | 0.00 | 0.00 | 0.00 | 62 | 1022.6 |
| 20260509051906 | 69 | 304 | 0.0 | 0.0 | 0.00 | 0.00 | 0.00 | 57 | 1022.2 |
| 20260509050403 | 69 | 214 | 3.5 | 6.1 | 0.00 | 0.00 | 0.00 | 54 | 1022.2 |
| 20260509044900 | 70 | 173 | 2.6 | 2.6 | 0.00 | 0.00 | 0.00 | 55 | 1022.1 |
| 20260509043356 | 71 | 6 | 0.9 | 0.9 | 0.00 | 0.00 | 0.00 | 56 | 1022.3 |
| 20260509041851 | 70 | 284 | 0.9 | 1.7 | 0.00 | 0.00 | 0.00 | 57 | 1022.1 |
| 20260509040350 | 71 | 200 | 1.7 | 2.6 | 0.00 | 0.00 | 0.00 | 56 | 1022.2 |
| 20260509034845 | 70 | 238 | 0.0 | 0.9 | 0.00 | 0.00 | 0.00 | 56 | 1022.1 |
| 20260509033343 | 70 | 237 | 2.6 | 2.6 | 0.00 | 0.00 | 0.00 | 57 | 1022.3 |
| 20260509031841 | 71 | 282 | 0.9 | 0.9 | 0.00 | 0.00 | 0.00 | 55 | 1022.2 |
| 20260509030339 | 73 | 257 | 1.7 | 1.7 | 0.00 | 0.00 | 0.00 | 50 | 1022.5 |
| 20260509024839 | 72 | 304 | 0.0 | 0.9 | 0.00 | 0.00 | 0.00 | 49 | 1022.5 |
| 20260509023336 | 72 | 245 | 2.6 | 4.3 | 0.00 | 0.00 | 0.00 | 50 | 1022.7 |
| 20260509021832 | 71 | 233 | 2.6 | 4.3 | 0.00 | 0.00 | 0.00 | 50 | 1023.2 |
| 20260509020331 | 70 | 263 | 2.6 | 4.3 | 0.00 | 0.00 | 0.00 | 52 | 1023.1 |
| 20260509014828 | 70 | 185 | 1.7 | 1.7 | 0.00 | 0.00 | 0.00 | 53 | 1023.3 |
| 20260509013324 | 70 | 174 | 2.6 | 2.6 | 0.00 | 0.00 | 0.00 | 53 | 1023.6 |
| 20260509011820 | 69 | 250 | 1.7 | 1.7 | 0.00 | 0.00 | 0.00 | 55 | 1023.7 |
| 20260509010318 | 69 | 285 | 1.7 | 2.6 | 0.00 | 0.00 | 0.00 | 54 | 1023.9 |
| 20260509004813 | 68 | 226 | 2.6 | 4.3 | 0.00 | 0.00 | 0.00 | 55 | 1024.2 |
| 20260509003311 | 67 | 238 | 1.7 | 1.7 | 0.00 | 0.00 | 0.00 | 57 | 1024.3 |
| 20260509001809 | 67 | 192 | 3.5 | 4.3 | 0.00 | 0.00 | 0.00 | 58 | 1024.0 |
| 20260509000306 | 67 | 274 | 0.9 | 0.9 | 0.00 | 0.00 | 0.00 | 59 | 1024.2 |
| 20260508234802 | 67 | 279 | 2.6 | 2.6 | 0.00 | 0.00 | 0.00 | 61 | 1024.1 |
| 20260508233302 | 66 | 296 | 0.9 | 0.9 | 0.00 | 0.00 | 0.00 | 61 | 1023.8 |
| 20260508231759 | 64 | 248 | 1.7 | 1.7 | 0.00 | 0.00 | 0.00 | 66 | 1024.0 |
| 20260508230259 | 62 | 262 | 1.7 | 1.7 | 0.00 | 0.00 | 0.00 | 71 | 1024.0 |
| 20260508224757 | 61 | 177 | 2.6 | 4.3 | 0.00 | 0.00 | 0.00 | 72 | 1024.0 |
| 20260508223254 | 60 | 232 | 1.7 | 1.7 | 0.00 | 0.00 | 0.00 | 72 | 1023.9 |
| 20260508221751 | 59 | 221 | 1.7 | 1.7 | 0.00 | 0.00 | 0.00 | 75 | 1023.6 |
| 20260508220246 | 57 | 249 | 1.7 | 1.7 | 0.00 | 0.00 | 0.00 | 78 | 1023.5 |
| 20260508214742 | 57 | 293 | 0.0 | 0.0 | 0.00 | 0.00 | 0.00 | 77 | 1023.5 |
| 20260508213238 | 54 | 234 | 2.6 | 6.1 | 0.00 | 0.00 | 0.00 | 81 | 1023.3 |
| 20260508211738 | 53 | 255 | 0.0 | 0.9 | 0.00 | 0.00 | 0.00 | 82 | 1023.1 |
| 20260508210235 | 51 | 206 | 1.7 | 2.6 | 0.00 | 0.00 | 0.00 | 85 | 1022.8 |
| 20260508204730 | 52 | 225 | 2.6 | 2.6 | 0.00 | 0.00 | 0.00 | 84 | 1022.8 |
| 20260508203225 | 53 | 268 | 0.0 | 0.0 | 0.00 | 0.00 | 0.00 | 81 | 1022.6 |